[[{"header":{"parameterUnit":"m.s-1","parameterCategory":1,"la1":30.2991,"la2":30.254,"lo1":-89.0895,"lo2":-89.0444,"dy":0.0017,"dx":0.0017,"nx":28,"ny":28,"refTime":"2024-03-01T03:00:00:Z","depth":0,"parameterNumber":2,"parameterNumberName":"U-component_of_WINDS"},"data":[0,0,0,0,0,0,0,0,0,0,0,0,0,0,0,0,0,0,0,0,0,0,0,0,0,0,0,0,0,0,0,0,0,0,0,0,0,0,0,0,0,0,0,0,0,0,0,0,0,0,0,0,0,0,0,0,0,0,-6.219,-6.2193,0,-6.2465,-6.2468,-6.2471,-6.2528,-6.2525,-6.2523,-6.2521,-6.2799,-6.2808,-6.2817,0,0,0,0,0,0,0,0,0,0,0,0,0,-6.1712,-6.1721,-6.2189,-6.2193,-6.2196,-6.2464,-6.2468,-6.2472,-6.2528,-6.2525,-6.2523,-6.2521,-6.2796,-6.2807,-6.2818,0,0,0,0,0,0,0,0,0,0,0,0,0,-6.1946,-6.1724,-6.2189,-6.2257,-6.2266,-6.2463,-6.2468,-6.2473,-6.2528,-6.2525,-6.2522,-6.2519,-6.2792,-6.2806,-6.282,-6.2968,0,0,-6.2862,-6.2869,0,0,0,0,0,0,0,0,-6.1933,-6.1964,-6.2243,-6.2253,-6.2263,-6.2459,-6.2402,-6.2639,-6.2529,-6.2429,-6.2521,-6.2518,-6.2688,-6.271,-6.2769,-6.2981,-6.2993,-6.2864,-6.2872,-6.2878,-6.2882,0,0,0,0,0,0,0,-6.1917,-6.1952,-6.2298,-6.2247,-6.2259,-6.2273,-6.2303,-6.2447,-6.2572,-6.2437,-6.2442,-6.2474,-6.2693,-6.2755,-6.2776,-6.2997,-6.2863,-6.2876,-6.2884,-6.289,-6.3347,-6.3351,0,0,0,0,0,0,-6.1889,-6.1938,-6.229,-6.2306,-6.2087,-6.2284,-6.2318,-6.2399,-6.2571,-6.2594,-6.2476,-6.2475,-6.2733,-6.2759,-6.2786,-6.2971,-6.2878,-6.2891,-6.2899,-6.3344,-6.3348,-6.3352,0,0,0,0,0,0,-6.1878,-6.192,-6.2278,-6.2124,-6.2171,-6.2296,-6.2387,-6.2406,-6.2468,-6.2601,-6.2623,-6.2517,-6.2731,-6.2766,-6.2923,-6.2982,-6.2897,-6.291,-6.3339,-6.3345,-6.335,-6.3343,0,0,0,0,0,0,-6.1865,-6.1916,-6.1973,-6.2125,-6.2179,-6.2411,-6.239,-6.2414,-6.2493,-6.2494,-6.2645,-6.2666,-6.2732,-6.2902,-6.2937,-6.2999,-6.2921,-6.3334,-6.3342,-6.3348,-6.3339,-6.3348,-6.3356,0,0,0,0,0,-6.1847,-6.1959,-6.1976,-6.2018,-6.2253,-6.2415,-6.2445,-6.2519,-6.2497,-6.2556,-6.2642,-6.2662,-6.297,-6.2917,-6.2957,-6.3025,-6.3331,-6.334,-6.3348,-6.3335,-6.3346,-6.3355,0,0,0,0,0,0,-6.1808,-6.198,-6.2,-6.2164,-6.2275,-6.2424,-6.25,-6.2528,-6.2646,-6.2642,-6.2728,-6.2762,-6.2914,-6.2986,-6.2924,-6.3179,-6.3149,-6.3166,-6.3126,-6.3138,-6.3146,-6.3124,-6.2933,0,0,0,0,0,-6.1819,-6.1936,-6.208,-6.2211,-6.2265,-6.2373,-6.2446,-6.2494,-6.2611,-6.2658,-6.2754,-6.2867,-6.2989,-6.3068,-6.3188,-6.335,-6.3384,-6.3417,-6.3425,-6.3432,-6.3445,-6.3537,-6.3554,-6.338,-6.338,-6.338,0,0,-6.1842,-6.195,-6.2018,-6.2206,-6.2297,-6.2416,-6.2412,-6.2537,-6.2627,-6.2676,-6.2831,-6.2906,-6.3037,-6.3198,-6.3274,-6.3263,-6.3501,-6.3443,-6.3447,-6.3456,-6.3548,-6.3564,-6.3579,-6.3386,-6.3385,-6.3384,0,0,-6.1944,-6.2038,-6.2158,-6.225,-6.2389,-6.2461,-6.249,-6.2637,-6.2689,-6.2846,-6.2886,-6.2994,-6.3203,-6.3295,-6.3369,-6.3511,-6.3534,-6.3548,-6.3592,-6.3681,-6.3695,-6.3707,-6.3758,-6.3775,-6.3561,-6.3561,-6.3561,0,-6.1954,-6.2136,-6.2216,-6.2341,-6.2422,-6.2476,-6.2598,-6.2684,-6.2854,-6.2909,-6.2895,-6.316,-6.3252,-6.3436,-6.3471,-6.353,-6.3565,-6.353,-6.3687,-6.37,-6.3713,-6.3762,-6.3781,-6.3562,-6.3562,-6.3562,-6.3562,0,-6.2142,-6.2268,-6.2348,-6.2513,-6.2605,-6.2727,-6.2826,-6.2909,-6.295,-6.3023,-6.3183,-6.3297,-6.3441,-6.3489,-6.3529,-6.368,-6.3669,-6.367,-6.3641,-6.3729,-6.3776,-6.3796,-6.3563,-6.3563,-6.3562,-6.3562,0,0,-6.2223,-6.2434,-6.2462,-6.2539,-6.2698,-6.2797,-6.2923,-6.3067,-6.3136,-6.3253,-6.3361,-6.3539,-6.3542,-6.3626,-6.3678,-6.3757,-6.3863,-6.3749,-6.3753,-6.3765,-6.4036,-6.4033,-6.4053,-6.388,-6.3884,-6.3888,-6.4025,0,-6.2344,-6.2572,-6.2649,-6.2838,-6.2955,-6.301,-6.312,-6.323,-6.3303,-6.3413,-6.3494,-6.3618,-6.3613,-6.3665,-6.3745,-6.3832,-6.3918,-6.3824,-6.3981,-6.3985,-6.3944,-6.4078,-6.4075,-6.4199,-6.4044,-6.4047,-6.405,0,-6.2514,-6.2636,-6.2836,-6.2984,-6.3036,-6.3133,-6.3273,-6.3378,-6.3504,-6.3552,-6.3648,-6.3695,-6.383,-6.3796,-6.3983,-6.3917,-6.3987,-6.404,-6.4047,-6.4062,-6.4021,-6.4096,-6.424,-6.4258,-6.408,-6.4077,-6.4075,0,-6.2553,-6.2767,-6.2915,-6.2979,-6.3155,-6.3222,-6.3298,-6.3422,-6.3504,-6.3626,-6.368,-6.3815,-6.3889,-6.3993,-6.4075,-6.4043,-6.4255,-6.4228,-6.4298,-6.4296,-6.4338,-6.4333,-6.4493,-6.4385,-6.4384,-6.4384,-6.4384,0,-6.2679,-6.2799,-6.2935,-6.3026,-6.3164,-6.3252,-6.3386,-6.3465,-6.3575,-6.3682,-6.3738,-6.3838,-6.3941,-6.4055,-6.4121,-6.4266,-6.4299,-6.4341,-6.4356,-6.4335,-6.4329,-6.438,-6.4373,-6.4389,-6.4388,-6.4387,-6.4386,0,-6.2743,-6.284,-6.3005,-6.3159,-6.3201,-6.3295,-6.3426,-6.3517,-6.3594,-6.373,-6.3766,-6.3887,-6.4024,-6.4117,-6.4292,-6.4336,-6.4493,-6.4508,-6.4451,-6.4458,-6.4523,-6.4515,-6.4719,-6.475,-6.4622,-6.4623,-6.4624,0,-6.2816,-6.2911,-6.3076,-6.3153,-6.3229,-6.3352,-6.3437,-6.3529,-6.3615,-6.3768,-6.3841,-6.3982,-6.4099,-6.4315,-6.4418,-6.4552,-6.457,-6.4633,-6.459,-6.4567,-6.4571,-6.4563,-6.4573,-6.4638,-6.4639,-6.464,-6.464,0,-6.2936,-6.298,-6.3101,-6.3239,-6.334,-6.3453,-6.3566,-6.3626,-6.3738,-6.3832,-6.3974,-6.4065,-6.4246,-6.4385,-6.453,-6.4608,-6.4643,-6.4654,-6.4677,-6.4655,-6.4618,-6.4638,-6.4467,-6.4648,-6.4647,-6.4646,-6.4646,-6.4646,-6.3007,-6.3094,-6.3225,-6.3358,-6.3454,-6.356,-6.3653,-6.3743,-6.3863,-6.4017,-6.4065,-6.4212,-6.4339,-6.4538,-6.4619,-6.4735,-6.473,-6.4763,-6.4772,-6.4778,-6.4778,-6.4601,-6.4762,-6.4762,-6.4762,-6.4762,-6.4762,0,-6.3129,-6.3217,-6.3339,-6.3497,-6.3602,-6.3629,-6.3757,-6.3843,-6.3972,-6.4088,-6.4204,-6.4367,-6.4504,-6.4619,-6.476,-6.4831,-6.4851,-6.4865,-6.4859,-6.4877,-6.4774,-6.474,-6.4847,-6.4847,-6.4846,-6.4846,-6.4846,-6.4846,-6.3205,-6.3354,-6.3414,-6.3612,-6.3699,-6.3844,-6.3915,-6.4013,-6.4106,-6.4287,-6.4401,-6.4476,-6.4592,-6.4743,-6.4869,-6.49,-6.4949,-6.4959,-6.4993,-6.4894,-6.4884,-6.4875,-6.4843,-6.4969,-6.4969,-6.5086,-6.5087,-6.5088]},{"header":{"parameterUnit":"m.s-1","parameterCategory":1,"la1":30.2991,"la2":30.254,"lo1":-89.0895,"lo2":-89.0444,"dy":0.0017,"dx":0.0017,"nx":28,"ny":28,"refTime":"2024-03-01T03:00:00:Z","depth":0,"parameterNumber":3,"parameterNumberName":"V-component_of_WINDS"},"data":[0,0,0,0,0,0,0,0,0,0,0,0,0,0,0,0,0,0,0,0,0,0,0,0,0,0,0,0,0,0,0,0,0,0,0,0,0,0,0,0,0,0,0,0,0,0,0,0,0,0,0,0,0,0,0,0,0,0,6.4469,6.4469,0,6.4528,6.4529,6.4529,6.4491,6.4489,6.4487,6.4485,6.4542,6.4546,6.4549,0,0,0,0,0,0,0,0,0,0,0,0,0,6.432,6.4323,6.4468,6.4469,6.447,6.4528,6.4529,6.453,6.4491,6.4489,6.4487,6.4485,6.4541,6.4545,6.4549,0,0,0,0,0,0,0,0,0,0,0,0,0,6.4382,6.4324,6.4468,6.4458,6.4457,6.4528,6.4529,6.453,6.4491,6.4489,6.4486,6.4484,6.454,6.4545,6.4549,6.4632,0,0,6.4564,6.4566,0,0,0,0,0,0,0,0,6.4379,6.4388,6.4459,6.4459,6.4458,6.4499,6.4497,6.4564,6.4492,6.4478,6.4485,6.4482,6.453,6.4535,6.4552,6.4635,6.4637,6.4564,6.4567,6.4569,6.4571,0,0,0,0,0,0,0,6.4374,6.4385,6.4492,6.446,6.446,6.445,6.4455,6.451,6.4518,6.4479,6.4477,6.4485,6.4529,6.4548,6.4553,6.4638,6.4564,6.4569,6.4571,6.4573,6.4794,6.4797,0,0,0,0,0,0,6.4371,6.4382,6.449,6.4494,6.4411,6.4454,6.4461,6.4489,6.4518,6.452,6.4487,6.4483,6.4541,6.4548,6.4555,6.4655,6.4569,6.4574,6.4577,6.4791,6.4794,6.4798,0,0,0,0,0,0,6.4368,6.4381,6.4488,6.4437,6.445,6.446,6.4491,6.4491,6.451,6.4523,6.4524,6.4504,6.4539,6.4548,6.4614,6.4656,6.4576,6.458,6.4787,6.4792,6.4796,6.4855,0,0,0,0,0,0,6.4364,6.4381,6.4412,6.4438,6.4453,6.4546,6.4494,6.4494,6.4519,6.4514,6.454,6.4541,6.4538,6.4607,6.4619,6.4661,6.4584,6.4783,6.4789,6.4795,6.4849,6.4861,6.4871,0,0,0,0,0,6.4359,6.4425,6.4414,6.4427,6.4493,6.4549,6.4557,6.4552,6.4522,6.4554,6.4563,6.4541,6.465,6.4614,6.4627,6.4672,6.4781,6.4788,6.4794,6.4844,6.4858,6.487,0,0,0,0,0,0,6.4401,6.4428,6.4416,6.4492,6.4519,6.4542,6.4582,6.4567,6.4601,6.4595,6.4587,6.4593,6.4662,6.4674,6.4633,6.4754,6.4711,6.472,6.4744,6.4758,6.4768,6.4764,6.4588,0,0,0,0,0,6.442,6.4464,6.4485,6.455,6.4564,6.4571,6.4595,6.459,6.4616,6.4627,6.464,6.4666,6.4706,6.4733,6.477,6.4851,6.4857,6.4888,6.4899,6.4908,6.4916,6.4961,6.4975,6.482,6.482,6.482,0,0,6.4458,6.4478,6.4506,6.4559,6.4579,6.4625,6.458,6.463,6.4664,6.4634,6.4697,6.4709,6.4737,6.4811,6.4844,6.4822,6.4961,6.4917,6.4924,6.4927,6.4969,6.4984,6.4997,6.4824,6.4824,6.4823,0,0,6.4551,6.4571,6.4628,6.465,6.4681,6.4686,6.47,6.4726,6.4733,6.4797,6.4777,6.4816,6.4886,6.4907,6.4927,6.5032,6.5013,6.5045,6.5101,6.5144,6.5157,6.5168,6.5205,6.5219,6.5053,6.5053,6.5053,0,6.4594,6.4662,6.4659,6.4711,6.4736,6.4714,6.4772,6.4793,6.4834,6.4851,6.4827,6.4916,6.4933,6.5012,6.5038,6.5055,6.5071,6.5041,6.5156,6.5166,6.5176,6.5212,6.5227,6.5057,6.5056,6.5056,6.5056,0,6.4714,6.4762,6.4805,6.4848,6.4878,6.4932,6.4937,6.4967,6.4961,6.4968,6.5034,6.5055,6.5097,6.5116,6.5109,6.5195,6.5181,6.5157,6.5112,6.5195,6.5229,6.5242,6.5062,6.5061,6.506,6.5059,0,0,6.4832,6.4876,6.4892,6.4912,6.4947,6.4984,6.5038,6.5082,6.5108,6.5138,6.5184,6.5245,6.5223,6.5246,6.5242,6.528,6.5363,6.5251,6.5252,6.5271,6.5461,6.5479,6.5495,6.5352,6.5354,6.5356,6.5459,0,6.4927,6.5024,6.5024,6.5113,6.5158,6.5139,6.5187,6.5213,6.5223,6.5262,6.5271,6.5315,6.5283,6.5297,6.5335,6.5345,6.5401,6.5338,6.5393,6.5395,6.5386,6.5512,6.5531,6.5626,6.5472,6.5474,6.5476,0,6.505,6.5087,6.5181,6.5212,6.5231,6.5274,6.5315,6.5353,6.5383,6.5387,6.5415,6.5405,6.5461,6.5416,6.5493,6.545,6.5473,6.5482,6.5486,6.549,6.544,6.552,6.5656,6.5671,6.5496,6.5495,6.5493,0,6.5128,6.5201,6.5267,6.5285,6.5322,6.5354,6.537,6.5398,6.5425,6.5461,6.5478,6.552,6.5542,6.5574,6.5576,6.5543,6.5654,6.5609,6.5658,6.5659,6.5681,6.568,6.5823,6.5697,6.5697,6.5697,6.5696,0,6.5233,6.5292,6.5303,6.5344,6.5409,6.5409,6.5473,6.5487,6.5513,6.5556,6.5542,6.5582,6.5582,6.5624,6.5625,6.5689,6.5699,6.5704,6.5704,6.5705,6.5704,6.5719,6.5712,6.5701,6.57,6.5699,6.5698,0,6.533,6.534,6.5411,6.5442,6.5451,6.5498,6.5524,6.5563,6.5572,6.5627,6.5639,6.5653,6.5701,6.5707,6.5762,6.5764,6.5841,6.5834,6.5831,6.583,6.5879,6.5874,6.6036,6.6058,6.5918,6.592,6.5921,0,6.5396,6.5441,6.5478,6.5507,6.5526,6.5572,6.5601,6.5603,6.5633,6.5673,6.5707,6.5754,6.5792,6.587,6.5884,6.5927,6.5921,6.5975,6.5927,6.5928,6.5922,6.5919,6.5924,6.5984,6.5985,6.5986,6.5987,0,6.5514,6.5517,6.5559,6.5605,6.5639,6.5674,6.5707,6.5731,6.5738,6.5772,6.5823,6.5852,6.5911,6.5958,6.6001,6.6017,6.6004,6.6003,6.6017,6.6018,6.6015,6.6018,6.5856,6.5999,6.5997,6.5997,6.5996,6.5996,6.5597,6.5637,6.567,6.5718,6.5744,6.5776,6.5814,6.583,6.5872,6.5921,6.592,6.5976,6.6006,6.6063,6.6083,6.6126,6.6108,6.6128,6.6133,6.6138,6.6143,6.6009,6.6134,6.6134,6.6133,6.6133,6.6133,0,6.5714,6.5735,6.578,6.5828,6.5866,6.5852,6.5888,6.5921,6.5971,6.6001,6.604,6.6099,6.6145,6.6165,6.621,6.6241,6.6236,6.6253,6.6251,6.6255,6.6156,6.614,6.6257,6.6257,6.6257,6.6257,6.6257,6.6256,6.5779,6.5847,6.5855,6.5935,6.5955,6.6011,6.6033,6.6063,6.6087,6.6154,6.6194,6.6207,6.6233,6.6281,6.6324,6.6328,6.6345,6.6365,6.6367,6.6274,6.6261,6.625,6.6234,6.6369,6.6369,6.6462,6.6463,6.6464]}]]